This is the latest recevied weather packets stored in our database for station/object GW4003. If no packets are shown the sender has not sent any weather packets the latest 10 day(s).
| Time | Temp. | Humidity | Pressure | Rain* | Wind** | Luminosity | Snow |
|---|---|---|---|---|---|---|---|
| 1777987946 | 2.22° C | 88% | 1016.1 hPa | 0.25 mm | - | - | - |
| 1777987643 | 2.78° C | 88% | 1016 hPa | 0.25 mm | - | - | - |
| 1777987339 | 2.78° C | 88% | 1016 hPa | 0.25 mm | - | - | - |
| 1777987036 | 2.78° C | 88% | 1015.9 hPa | 0.25 mm | - | - | - |
| 1777986734 | 2.78° C | 88% | 1015.7 hPa | 0 mm | - | - | - |
| 1777986429 | 2.78° C | 88% | 1015.7 hPa | 0.25 mm | - | - | - |
| 1777986126 | 2.78° C | 88% | 1015.6 hPa | 0.25 mm | - | - | - |
| 1777985823 | 2.78° C | 88% | 1015.4 hPa | 0.25 mm | - | - | - |
| 1777985519 | 2.78° C | 88% | 1015.3 hPa | 0.25 mm | - | - | - |
| 1777985216 | 2.78° C | 88% | 1015.2 hPa | 0.25 mm | - | - | - |
| 1777984913 | 2.78° C | 88% | 1015.2 hPa | 0.51 mm | - | - | - |
| 1777984610 | 2.78° C | 88% | 1015.1 hPa | 0.51 mm | - | - | - |
| 1777984306 | 2.78° C | 88% | 1015 hPa | 0.76 mm | - | - | - |
| 1777984003 | 2.78° C | 88% | 1015 hPa | 1.27 mm | - | - | - |
| 1777983700 | 2.78° C | 88% | 1015.1 hPa | 1.52 mm | - | - | - |
| 1777983397 | 2.78° C | 87% | 1015 hPa | 1.78 mm | - | - | - |
| 1777983094 | 3.33° C | 88% | 1015 hPa | 1.52 mm | - | - | - |
| 1777982790 | 3.33° C | 87% | 1014.9 hPa | 1.52 mm | - | - | - |
| 1777982487 | 3.33° C | 87% | 1014.8 hPa | 1.52 mm | - | - | - |
| 1777982183 | 3.33° C | 87% | 1014.8 hPa | 1.52 mm | - | - | - |
| 1777981880 | 3.33° C | 87% | 1014.8 hPa | 1.78 mm | - | - | - |
| 1777981576 | 3.89° C | 87% | 1014.7 hPa | 1.52 mm | - | - | - |
| 1777981273 | 3.89° C | 87% | 1014.6 hPa | 2.03 mm | - | - | - |
| 1777980970 | 3.89° C | 87% | 1014.5 hPa | 2.03 mm | - | - | - |
| 1777980667 | 4.44° C | 87% | 1014.5 hPa | 1.78 mm | - | - | - |
* Rain latest hour (hover to see other rain measurements)
** Current wind speed in m/s (hover to see current wind gust speed)